[[{"header":{"parameterUnit":"m.s-1","parameterCategory":1,"la1":30.2991,"la2":30.254,"lo1":-89.0895,"lo2":-89.0444,"dy":0.0017,"dx":0.0017,"nx":28,"ny":28,"refTime":"2025-04-12T09:00:00:Z","depth":0,"parameterNumber":2,"parameterNumberName":"U-component_of_WINDS"},"data":[0,0,0,0,0,0,0,0,0,0,0,0,0,0,0,0,0,0,0,0,0,0,0,0,0,0,0,0,0,0,0,0,0,0,0,0,0,0,0,0,0,0,0,0,0,0,0,0,0,0,0,0,0,0,0,0,0,0,-1.6819,-1.682,0,-1.6919,-1.6921,-1.6922,-1.6958,-1.6958,-1.6958,-1.6957,-1.7061,-1.7064,-1.7067,0,0,0,0,0,0,0,0,0,0,0,0,0,-1.6659,-1.6661,-1.6818,-1.682,-1.6821,-1.6919,-1.6921,-1.6922,-1.6958,-1.6958,-1.6957,-1.6957,-1.706,-1.7064,-1.7067,0,0,0,0,0,0,0,0,0,0,0,0,0,-1.674,-1.6662,-1.6818,-1.6851,-1.6855,-1.6919,-1.6921,-1.6922,-1.6958,-1.6958,-1.6957,-1.6957,-1.7059,-1.7063,-1.7068,-1.7107,0,0,-1.7082,-1.7084,0,0,0,0,0,0,0,0,-1.6736,-1.6746,-1.6845,-1.6849,-1.6853,-1.6926,-1.6902,-1.6984,-1.6959,-1.6919,-1.6957,-1.6957,-1.7016,-1.7025,-1.7045,-1.7112,-1.7116,-1.7082,-1.7085,-1.7087,-1.7089,0,0,0,0,0,0,0,-1.673,-1.6742,-1.6858,-1.6846,-1.6851,-1.6861,-1.6872,-1.6918,-1.6969,-1.6923,-1.6925,-1.6937,-1.7019,-1.704,-1.7047,-1.7118,-1.7082,-1.7086,-1.7089,-1.7091,-1.7223,-1.7223,0,0,0,0,0,0,-1.6719,-1.6737,-1.6855,-1.6861,-1.6792,-1.6864,-1.6877,-1.6903,-1.6969,-1.6979,-1.6937,-1.6938,-1.7032,-1.7042,-1.7051,-1.7101,-1.7087,-1.7092,-1.7094,-1.7222,-1.7223,-1.7224,0,0,0,0,0,0,-1.6715,-1.6729,-1.6851,-1.68,-1.6816,-1.6868,-1.6897,-1.6905,-1.6927,-1.698,-1.699,-1.6949,-1.7032,-1.7045,-1.7093,-1.7105,-1.7094,-1.7098,-1.7221,-1.7222,-1.7223,-1.7202,0,0,0,0,0,0,-1.671,-1.6727,-1.6742,-1.68,-1.6819,-1.6891,-1.6898,-1.6908,-1.6934,-1.6937,-1.6994,-1.7003,-1.7033,-1.7086,-1.7097,-1.7112,-1.7101,-1.722,-1.7222,-1.7223,-1.7201,-1.7202,-1.7202,0,0,0,0,0,-1.6705,-1.6732,-1.6743,-1.6757,-1.6839,-1.6891,-1.6902,-1.6936,-1.6935,-1.6951,-1.6986,-1.7001,-1.7102,-1.709,-1.7104,-1.712,-1.722,-1.7221,-1.7223,-1.7201,-1.7202,-1.7202,0,0,0,0,0,0,-1.6675,-1.6741,-1.6753,-1.68,-1.684,-1.6897,-1.6918,-1.6935,-1.6976,-1.6976,-1.7016,-1.7029,-1.7074,-1.7102,-1.7087,-1.7161,-1.7162,-1.7166,-1.7141,-1.7142,-1.7142,-1.7134,-1.7105,0,0,0,0,0,-1.6674,-1.6711,-1.6766,-1.6803,-1.6822,-1.6866,-1.6891,-1.6913,-1.6956,-1.6973,-1.7011,-1.7052,-1.7093,-1.7119,-1.716,-1.7206,-1.7219,-1.7224,-1.7224,-1.7224,-1.7227,-1.7254,-1.7257,-1.7229,-1.7229,-1.7229,0,0,-1.6672,-1.6712,-1.6733,-1.6798,-1.6831,-1.6869,-1.688,-1.692,-1.6948,-1.6979,-1.7027,-1.7056,-1.7105,-1.7152,-1.7175,-1.7177,-1.7238,-1.7226,-1.7226,-1.7229,-1.7256,-1.7258,-1.7261,-1.723,-1.723,-1.723,0,0,-1.6687,-1.6722,-1.6756,-1.6789,-1.684,-1.6869,-1.6877,-1.6933,-1.6953,-1.7002,-1.7026,-1.7061,-1.7131,-1.7164,-1.7191,-1.722,-1.7236,-1.7232,-1.7234,-1.726,-1.7262,-1.7264,-1.7274,-1.7277,-1.7235,-1.7235,-1.7235,0,-1.6678,-1.6736,-1.6771,-1.6809,-1.6837,-1.6867,-1.6902,-1.6933,-1.6994,-1.7013,-1.7014,-1.7103,-1.7137,-1.7193,-1.72,-1.7221,-1.7232,-1.7225,-1.7258,-1.7261,-1.7264,-1.7274,-1.7278,-1.7234,-1.7235,-1.7235,-1.7235,0,-1.6722,-1.6762,-1.6784,-1.6842,-1.6872,-1.6908,-1.695,-1.6976,-1.6996,-1.7026,-1.7076,-1.7119,-1.7169,-1.7184,-1.7204,-1.7243,-1.7242,-1.7251,-1.7252,-1.7265,-1.7275,-1.7279,-1.7233,-1.7234,-1.7234,-1.7234,0,0,-1.6721,-1.6799,-1.6806,-1.6833,-1.6891,-1.6923,-1.6961,-1.701,-1.7032,-1.7074,-1.7106,-1.7165,-1.7173,-1.7203,-1.7228,-1.725,-1.7271,-1.7256,-1.7258,-1.7257,-1.7316,-1.7309,-1.7313,-1.7282,-1.7283,-1.7284,-1.7312,0,-1.6744,-1.6813,-1.6846,-1.6901,-1.6938,-1.6967,-1.7,-1.704,-1.7069,-1.7105,-1.7137,-1.7178,-1.7186,-1.7204,-1.7228,-1.7263,-1.7283,-1.7262,-1.7313,-1.7315,-1.7299,-1.7319,-1.7312,-1.7336,-1.7317,-1.7317,-1.7318,0,-1.678,-1.6821,-1.6879,-1.6933,-1.695,-1.6979,-1.7027,-1.7061,-1.7107,-1.7127,-1.716,-1.7184,-1.7226,-1.7225,-1.7283,-1.7267,-1.7291,-1.7311,-1.7313,-1.7319,-1.7316,-1.7325,-1.7345,-1.7348,-1.7325,-1.7324,-1.7324,0,-1.6772,-1.6843,-1.6886,-1.6909,-1.6973,-1.6993,-1.7021,-1.7066,-1.7094,-1.7136,-1.7154,-1.7201,-1.7226,-1.7262,-1.7297,-1.7293,-1.7352,-1.7354,-1.737,-1.7369,-1.738,-1.7379,-1.7404,-1.7396,-1.7396,-1.7396,-1.7396,0,-1.6794,-1.6828,-1.6884,-1.6911,-1.695,-1.6989,-1.7027,-1.7057,-1.7098,-1.7131,-1.716,-1.7191,-1.7236,-1.7273,-1.7302,-1.7346,-1.7357,-1.7374,-1.7381,-1.7371,-1.7369,-1.7387,-1.7386,-1.7397,-1.7397,-1.7396,-1.7396,0,-1.6793,-1.6831,-1.6881,-1.6938,-1.6953,-1.698,-1.7029,-1.7057,-1.7087,-1.713,-1.7142,-1.719,-1.7235,-1.7275,-1.7334,-1.7353,-1.7398,-1.7407,-1.7383,-1.7386,-1.7399,-1.7398,-1.7436,-1.7444,-1.7431,-1.7431,-1.7431,0,-1.6804,-1.6831,-1.6891,-1.6915,-1.6943,-1.6982,-1.701,-1.7049,-1.7078,-1.7132,-1.7153,-1.72,-1.724,-1.7311,-1.7351,-1.7397,-1.7407,-1.7418,-1.7414,-1.7404,-1.7407,-1.7405,-1.7408,-1.7417,-1.7417,-1.7417,-1.7417,0,-1.6819,-1.6837,-1.6876,-1.6923,-1.6955,-1.6994,-1.7033,-1.7052,-1.7099,-1.7129,-1.7175,-1.7206,-1.7267,-1.7314,-1.7364,-1.7393,-1.7413,-1.7418,-1.7424,-1.7414,-1.7398,-1.7407,-1.7382,-1.7417,-1.7417,-1.7417,-1.7417,-1.7417,-1.6824,-1.6849,-1.6896,-1.6939,-1.6973,-1.7009,-1.7038,-1.7072,-1.7111,-1.7164,-1.7185,-1.7232,-1.7278,-1.7348,-1.7377,-1.7415,-1.7418,-1.7427,-1.7429,-1.7431,-1.7429,-1.7393,-1.7425,-1.7425,-1.7425,-1.7425,-1.7425,0,-1.6841,-1.6872,-1.6911,-1.6965,-1.7,-1.7015,-1.706,-1.7087,-1.7128,-1.717,-1.7208,-1.7262,-1.7307,-1.7352,-1.7399,-1.7421,-1.7432,-1.7432,-1.7431,-1.7437,-1.7423,-1.7413,-1.7423,-1.7423,-1.7423,-1.7423,-1.7423,-1.7423,-1.6853,-1.6897,-1.6921,-1.6982,-1.7014,-1.706,-1.7084,-1.7118,-1.7151,-1.7209,-1.7247,-1.7275,-1.7318,-1.737,-1.7412,-1.7424,-1.744,-1.7439,-1.7453,-1.7439,-1.7438,-1.7438,-1.7429,-1.7442,-1.7442,-1.7464,-1.7464,-1.7465]},{"header":{"parameterUnit":"m.s-1","parameterCategory":1,"la1":30.2991,"la2":30.254,"lo1":-89.0895,"lo2":-89.0444,"dy":0.0017,"dx":0.0017,"nx":28,"ny":28,"refTime":"2025-04-12T09:00:00:Z","depth":0,"parameterNumber":3,"parameterNumberName":"V-component_of_WINDS"},"data":[0,0,0,0,0,0,0,0,0,0,0,0,0,0,0,0,0,0,0,0,0,0,0,0,0,0,0,0,0,0,0,0,0,0,0,0,0,0,0,0,0,0,0,0,0,0,0,0,0,0,0,0,0,0,0,0,0,0,3.0472,3.0471,0,3.0433,3.0432,3.0432,3.0418,3.0418,3.0418,3.0418,3.0373,3.0372,3.037,0,0,0,0,0,0,0,0,0,0,0,0,0,3.0531,3.053,3.0472,3.0471,3.0471,3.0433,3.0432,3.0432,3.0418,3.0418,3.0418,3.0418,3.0374,3.0372,3.037,0,0,0,0,0,0,0,0,0,0,0,0,0,3.05,3.053,3.0472,3.0459,3.0458,3.0433,3.0432,3.0431,3.0418,3.0418,3.0418,3.0418,3.0374,3.0372,3.037,3.0353,0,0,3.0364,3.0363,0,0,0,0,0,0,0,0,3.0502,3.0498,3.0462,3.046,3.0459,3.043,3.0437,3.0405,3.0417,3.0433,3.0418,3.0418,3.0392,3.0388,3.038,3.0351,3.0349,3.0364,3.0363,3.0362,3.0361,0,0,0,0,0,0,0,3.0504,3.0499,3.0456,3.0461,3.0459,3.0455,3.045,3.043,3.0411,3.0431,3.043,3.0426,3.0391,3.0382,3.0379,3.0348,3.0364,3.0362,3.0361,3.036,3.0304,3.0304,0,0,0,0,0,0,3.0509,3.0501,3.0457,3.0455,3.0481,3.0453,3.0449,3.0439,3.0411,3.0408,3.0426,3.0426,3.0385,3.0381,3.0377,3.0356,3.0362,3.036,3.0359,3.0304,3.0304,3.0303,0,0,0,0,0,0,3.051,3.0505,3.0459,3.0478,3.0472,3.0452,3.0441,3.0438,3.043,3.0407,3.0403,3.0421,3.0386,3.038,3.036,3.0354,3.0359,3.0357,3.0304,3.0304,3.0304,3.0313,0,0,0,0,0,0,3.0512,3.0506,3.05,3.0478,3.0471,3.0443,3.0441,3.0437,3.0427,3.0426,3.0402,3.0398,3.0385,3.0363,3.0358,3.0352,3.0356,3.0305,3.0304,3.0304,3.0313,3.0313,3.0313,0,0,0,0,0,3.0514,3.0503,3.0499,3.0494,3.0463,3.0443,3.0439,3.0426,3.0426,3.042,3.0406,3.0399,3.0356,3.0361,3.0355,3.0348,3.0305,3.0304,3.0304,3.0313,3.0313,3.0313,0,0,0,0,0,0,3.0522,3.05,3.0496,3.0477,3.0463,3.0441,3.0432,3.0426,3.0409,3.0409,3.0392,3.0387,3.0368,3.0356,3.0362,3.033,3.033,3.0328,3.0339,3.0339,3.0339,3.0342,3.0354,0,0,0,0,0,3.0523,3.0509,3.0489,3.0475,3.0468,3.0451,3.0442,3.0434,3.0417,3.041,3.0394,3.0377,3.036,3.0349,3.0331,3.0312,3.0306,3.0304,3.0304,3.0304,3.0302,3.0291,3.029,3.0301,3.0301,3.0301,0,0,3.0522,3.0508,3.05,3.0476,3.0464,3.045,3.0446,3.0431,3.042,3.0407,3.0387,3.0375,3.0355,3.0335,3.0325,3.0324,3.0298,3.0303,3.0303,3.0301,3.029,3.0289,3.0288,3.0301,3.0301,3.0301,0,0,3.0513,3.0501,3.0488,3.0477,3.0458,3.0448,3.0445,3.0424,3.0416,3.0396,3.0387,3.0373,3.0343,3.033,3.0319,3.0306,3.0299,3.0301,3.03,3.0289,3.0289,3.0288,3.0283,3.0282,3.03,3.03,3.03,0,3.0514,3.0493,3.0482,3.0468,3.0458,3.0448,3.0434,3.0422,3.0399,3.0392,3.0391,3.0355,3.0341,3.0317,3.0315,3.0306,3.0302,3.0303,3.029,3.0289,3.0288,3.0283,3.0282,3.03,3.03,3.03,3.03,0,3.0495,3.0481,3.0473,3.0453,3.0441,3.0427,3.0413,3.0403,3.0396,3.0385,3.0365,3.0347,3.0327,3.0321,3.0313,3.0297,3.0297,3.0293,3.0292,3.0287,3.0283,3.0281,3.0301,3.03,3.03,3.03,0,0,3.049,3.0465,3.0462,3.0453,3.0433,3.0421,3.0406,3.0388,3.038,3.0364,3.0351,3.0327,3.0324,3.0312,3.0302,3.0293,3.0285,3.0291,3.029,3.029,3.0265,3.0268,3.0266,3.028,3.028,3.0279,3.0267,0,3.0479,3.0454,3.0444,3.0423,3.041,3.0401,3.0388,3.0374,3.0363,3.0349,3.0337,3.0321,3.0319,3.0311,3.0302,3.0288,3.0279,3.0288,3.0267,3.0266,3.0272,3.0264,3.0266,3.0255,3.0265,3.0265,3.0265,0,3.0462,3.0448,3.0427,3.0409,3.0403,3.0392,3.0375,3.0362,3.0346,3.0339,3.0326,3.0317,3.0301,3.0302,3.0278,3.0285,3.0275,3.0267,3.0267,3.0263,3.0265,3.026,3.0251,3.025,3.0262,3.0262,3.0262,0,3.046,3.0436,3.042,3.0413,3.0392,3.0384,3.0375,3.0359,3.0349,3.0333,3.0326,3.0309,3.0299,3.0285,3.0271,3.0273,3.0249,3.0249,3.0242,3.0243,3.0237,3.0237,3.0226,3.0231,3.0232,3.0232,3.0232,0,3.0448,3.0435,3.0419,3.041,3.0395,3.0383,3.0369,3.0358,3.0344,3.0332,3.0322,3.0311,3.0294,3.028,3.0269,3.0251,3.0247,3.024,3.0237,3.0241,3.0241,3.0234,3.0234,3.0231,3.0231,3.0231,3.0231,0,3.0443,3.0432,3.0415,3.0397,3.0392,3.0382,3.0366,3.0356,3.0346,3.033,3.0325,3.0309,3.0292,3.0277,3.0254,3.0247,3.0229,3.0225,3.0235,3.0233,3.0227,3.0228,3.021,3.0207,3.0215,3.0215,3.0215,0,3.0436,3.0427,3.0408,3.04,3.0392,3.0378,3.0368,3.0356,3.0346,3.0328,3.0319,3.0302,3.0288,3.026,3.0245,3.0228,3.0224,3.0219,3.0221,3.0225,3.0223,3.0224,3.0223,3.0218,3.0218,3.0218,3.0218,0,3.0425,3.042,3.0408,3.0393,3.0382,3.037,3.0357,3.035,3.0336,3.0325,3.0308,3.0297,3.0275,3.0257,3.0238,3.0227,3.022,3.0218,3.0216,3.0219,3.0225,3.0221,3.0234,3.0218,3.0218,3.0218,3.0218,3.0218,3.0419,3.041,3.0396,3.0382,3.0372,3.036,3.035,3.0339,3.0326,3.0308,3.0301,3.0284,3.0268,3.0242,3.0231,3.0217,3.0216,3.0212,3.0211,3.0211,3.0211,3.0228,3.0213,3.0213,3.0213,3.0213,3.0213,0,3.0407,3.0398,3.0385,3.0369,3.0358,3.0354,3.034,3.0331,3.0316,3.0303,3.0289,3.027,3.0254,3.0238,3.022,3.0212,3.0208,3.0208,3.0208,3.0205,3.0213,3.0217,3.0211,3.0211,3.0211,3.0211,3.0211,3.0211,3.0399,3.0384,3.0378,3.0358,3.0349,3.0333,3.0326,3.0315,3.0304,3.0284,3.0271,3.0262,3.0247,3.0228,3.0213,3.0209,3.0202,3.0203,3.0197,3.0204,3.0205,3.0205,3.0209,3.0201,3.0201,3.0191,3.0191,3.0191]}]]